Year,Month,Day,Hour,Minute,Value (Times are PST for temperature in C)
2015,10,11,00,00,10.40
2015,10,11,00,01,10.40
2015,10,11,00,02,10.30
2015,10,11,00,03,10.30
2015,10,11,00,04,10.30
2015,10,11,00,05,10.30
2015,10,11,00,06,10.30
2015,10,11,00,07,10.30
2015,10,11,00,08,10.30
2015,10,11,00,09,10.20
2015,10,11,00,10,10.20
2015,10,11,00,11,10.20
2015,10,11,00,12,10.20
2015,10,11,00,13,10.20
2015,10,11,00,14,10.20
2015,10,11,00,15,10.20
2015,10,11,00,16,10.20
2015,10,11,00,17,10.20
2015,10,11,00,18,10.10
2015,10,11,00,19,10.10
2015,10,11,00,20,10.10
2015,10,11,00,21,10.10
2015,10,11,00,22,10.10
2015,10,11,00,23,10.00
2015,10,11,00,24,10.00
2015,10,11,00,25,10.00
2015,10,11,00,26,10.00
2015,10,11,00,27,10.00
2015,10,11,00,28,10.00
2015,10,11,00,29,9.90
2015,10,11,00,30,9.90
2015,10,11,00,31,9.90
2015,10,11,00,32,9.90
2015,10,11,00,33,9.90
2015,10,11,00,34,9.90
2015,10,11,00,35,9.90
2015,10,11,00,36,9.80
2015,10,11,00,37,9.80
2015,10,11,00,38,9.80
2015,10,11,00,39,9.80
2015,10,11,00,40,9.80
2015,10,11,00,41,9.70
2015,10,11,00,42,9.70
2015,10,11,00,43,9.70
2015,10,11,00,44,9.70
2015,10,11,00,45,9.70
2015,10,11,00,46,9.70
2015,10,11,00,47,9.70
2015,10,11,00,48,9.60
2015,10,11,00,49,9.60
2015,10,11,00,50,9.60
2015,10,11,00,51,9.60
2015,10,11,00,52,9.60
2015,10,11,00,53,9.60
2015,10,11,00,54,9.60
2015,10,11,00,55,9.60
2015,10,11,00,56,9.50
2015,10,11,00,57,9.50
2015,10,11,00,58,9.50
2015,10,11,00,59,9.50
2015,10,11,01,00,9.50
2015,10,11,01,01,9.40
2015,10,11,01,02,9.40
2015,10,11,01,03,9.40
2015,10,11,01,04,9.40
2015,10,11,01,05,9.40
2015,10,11,01,06,9.40
2015,10,11,01,07,9.40
2015,10,11,01,08,9.40
2015,10,11,01,09,9.40
2015,10,11,01,10,9.30
2015,10,11,01,11,9.30
2015,10,11,01,12,9.30
2015,10,11,01,13,9.30
2015,10,11,01,14,9.30
2015,10,11,01,15,9.30
2015,10,11,01,16,9.30
2015,10,11,01,17,9.20
2015,10,11,01,18,9.20
2015,10,11,01,19,9.20
2015,10,11,01,20,9.20
2015,10,11,01,21,9.20
2015,10,11,01,22,9.20
2015,10,11,01,23,9.10
2015,10,11,01,24,9.10
2015,10,11,01,25,9.10
2015,10,11,01,26,9.10
2015,10,11,01,27,9.10
2015,10,11,01,28,9.00
2015,10,11,01,29,9.00
2015,10,11,01,30,9.00
2015,10,11,01,31,8.90
2015,10,11,01,32,8.90
2015,10,11,01,33,8.90
2015,10,11,01,34,8.90
2015,10,11,01,35,8.90
2015,10,11,01,36,8.90
2015,10,11,01,37,8.90
2015,10,11,01,38,8.80
2015,10,11,01,39,8.80
2015,10,11,01,40,8.80
2015,10,11,01,41,8.80
2015,10,11,01,42,8.80
2015,10,11,01,43,8.80
2015,10,11,01,44,8.80
2015,10,11,01,45,8.80
2015,10,11,01,46,8.80
2015,10,11,01,47,8.80
2015,10,11,01,48,8.80
2015,10,11,01,49,8.80
2015,10,11,01,50,8.80
2015,10,11,01,51,8.80
2015,10,11,01,52,8.80
2015,10,11,01,53,8.80
2015,10,11,01,54,8.70
2015,10,11,01,55,8.70
2015,10,11,01,56,8.70
2015,10,11,01,57,8.70
2015,10,11,01,58,8.70
2015,10,11,01,59,8.70
2015,10,11,02,00,8.70
2015,10,11,02,01,8.70
2015,10,11,02,02,8.70
2015,10,11,02,03,8.60
2015,10,11,02,04,8.60
2015,10,11,02,05,8.60
2015,10,11,02,06,8.60
2015,10,11,02,07,8.60
2015,10,11,02,08,8.60
2015,10,11,02,09,8.60
2015,10,11,02,10,8.60
2015,10,11,02,11,8.60
2015,10,11,02,12,8.60
2015,10,11,02,13,8.60
2015,10,11,02,14,8.60
2015,10,11,02,15,8.50
2015,10,11,02,16,8.50
2015,10,11,02,17,8.50
2015,10,11,02,18,8.50
2015,10,11,02,19,8.50
2015,10,11,02,20,8.60
2015,10,11,02,21,8.50
2015,10,11,02,22,8.50
2015,10,11,02,23,8.60
2015,10,11,02,24,8.50
2015,10,11,02,25,8.50
2015,10,11,02,26,8.50
2015,10,11,02,27,8.50
2015,10,11,02,28,8.50
2015,10,11,02,29,8.50
2015,10,11,02,30,8.50
2015,10,11,02,31,8.40
2015,10,11,02,32,8.40
2015,10,11,02,33,8.40
2015,10,11,02,34,8.40
2015,10,11,02,35,8.40
2015,10,11,02,36,8.40
2015,10,11,02,37,8.40
2015,10,11,02,38,8.40
2015,10,11,02,39,8.40
2015,10,11,02,40,8.40
2015,10,11,02,41,8.40
2015,10,11,02,42,8.40
2015,10,11,02,43,8.40
2015,10,11,02,44,8.40
2015,10,11,02,45,8.40
2015,10,11,02,46,8.40
2015,10,11,02,47,8.40
2015,10,11,02,48,8.40
2015,10,11,02,49,8.40
2015,10,11,02,50,8.40
2015,10,11,02,51,8.40
2015,10,11,02,52,8.40
2015,10,11,02,53,8.40
2015,10,11,02,54,8.40
2015,10,11,02,55,8.40
2015,10,11,02,56,8.40
2015,10,11,02,57,8.40
2015,10,11,02,58,8.40
2015,10,11,02,59,8.40
2015,10,11,03,00,8.40
2015,10,11,03,01,8.40
2015,10,11,03,02,8.40
2015,10,11,03,03,8.40
2015,10,11,03,04,8.30
2015,10,11,03,05,8.30
2015,10,11,03,06,8.40
2015,10,11,03,07,8.40
2015,10,11,03,08,8.40
2015,10,11,03,09,8.40
2015,10,11,03,10,8.40
2015,10,11,03,11,8.40
2015,10,11,03,12,8.40
2015,10,11,03,13,8.40
2015,10,11,03,14,8.40
2015,10,11,03,15,8.40
2015,10,11,03,16,8.40
2015,10,11,03,17,8.40
2015,10,11,03,18,8.40
2015,10,11,03,19,8.40
2015,10,11,03,20,8.40
2015,10,11,03,21,8.40
2015,10,11,03,22,8.40
2015,10,11,03,23,8.40
2015,10,11,03,24,8.40
2015,10,11,03,25,8.30
2015,10,11,03,26,8.30
2015,10,11,03,27,8.30
2015,10,11,03,28,8.30
2015,10,11,03,29,8.30
2015,10,11,03,30,8.30
2015,10,11,03,31,8.30
2015,10,11,03,32,8.30
2015,10,11,03,33,8.30
2015,10,11,03,34,8.30
2015,10,11,03,35,8.30
2015,10,11,03,36,8.20
2015,10,11,03,37,8.20
2015,10,11,03,38,8.20
2015,10,11,03,39,8.20
2015,10,11,03,40,8.20
2015,10,11,03,41,8.20
2015,10,11,03,42,8.20
2015,10,11,03,43,8.20
2015,10,11,03,44,8.20
2015,10,11,03,45,8.20
2015,10,11,03,46,8.20
2015,10,11,03,47,8.20
2015,10,11,03,48,8.20
2015,10,11,03,49,8.10
2015,10,11,03,50,8.10
2015,10,11,03,51,8.10
2015,10,11,03,52,8.10
2015,10,11,03,53,8.10
2015,10,11,03,54,8.10
2015,10,11,03,55,8.10
2015,10,11,03,56,8.10
2015,10,11,03,57,8.00
2015,10,11,03,58,8.00
2015,10,11,03,59,8.00
2015,10,11,04,00,8.00
2015,10,11,04,01,7.90
2015,10,11,04,02,7.90
2015,10,11,04,03,7.90
2015,10,11,04,04,7.90
2015,10,11,04,05,7.80
2015,10,11,04,06,7.80
2015,10,11,04,07,7.80
2015,10,11,04,08,7.80
2015,10,11,04,09,7.80
2015,10,11,04,10,7.80
2015,10,11,04,11,7.70
2015,10,11,04,12,7.70
2015,10,11,04,13,7.70
2015,10,11,04,14,7.70
2015,10,11,04,15,7.70
2015,10,11,04,16,7.70
2015,10,11,04,17,7.70
2015,10,11,04,18,7.70
2015,10,11,04,19,7.70
2015,10,11,04,20,7.70
2015,10,11,04,21,7.70
2015,10,11,04,22,7.70
2015,10,11,04,23,7.70
2015,10,11,04,24,7.60
2015,10,11,04,25,7.60
2015,10,11,04,26,7.60
2015,10,11,04,27,7.60
2015,10,11,04,28,7.60
2015,10,11,04,29,7.50
2015,10,11,04,30,7.50
2015,10,11,04,31,7.40
2015,10,11,04,32,7.40
2015,10,11,04,33,7.40
2015,10,11,04,34,7.40
2015,10,11,04,35,7.30
2015,10,11,04,36,7.30
2015,10,11,04,37,7.30
2015,10,11,04,38,7.30
2015,10,11,04,39,7.30
2015,10,11,04,40,7.30
2015,10,11,04,41,7.30
2015,10,11,04,42,7.30
2015,10,11,04,43,7.30
2015,10,11,04,44,7.30
2015,10,11,04,45,7.30
2015,10,11,04,46,7.30
2015,10,11,04,47,7.30
2015,10,11,04,48,7.30
2015,10,11,04,49,7.30
2015,10,11,04,50,7.30
2015,10,11,04,51,7.30
2015,10,11,04,52,7.20
2015,10,11,04,53,7.20
2015,10,11,04,54,7.20
2015,10,11,04,55,7.20
2015,10,11,04,56,7.20
2015,10,11,04,57,7.20
2015,10,11,04,58,7.20
2015,10,11,04,59,7.20
2015,10,11,05,00,7.10
2015,10,11,05,01,7.10
2015,10,11,05,02,7.10
2015,10,11,05,03,7.10
2015,10,11,05,04,7.00
2015,10,11,05,05,7.00
2015,10,11,05,06,7.00
2015,10,11,05,07,6.90
2015,10,11,05,08,6.90
2015,10,11,05,09,6.90
2015,10,11,05,10,6.90
2015,10,11,05,11,6.90
2015,10,11,05,12,6.80
2015,10,11,05,13,6.80
2015,10,11,05,14,6.80
2015,10,11,05,15,6.80
2015,10,11,05,16,6.80
2015,10,11,05,17,6.70
2015,10,11,05,18,6.70
2015,10,11,05,19,6.70
2015,10,11,05,20,6.70
2015,10,11,05,21,6.70
2015,10,11,05,22,6.70
2015,10,11,05,23,6.70
2015,10,11,05,24,6.70
2015,10,11,05,25,6.70
2015,10,11,05,26,6.70
2015,10,11,05,27,6.70
2015,10,11,05,28,6.70
2015,10,11,05,29,6.70
2015,10,11,05,30,6.70
2015,10,11,05,31,6.70
2015,10,11,05,32,6.60
2015,10,11,05,33,6.60
2015,10,11,05,34,6.60
2015,10,11,05,35,6.60
2015,10,11,05,36,6.60
2015,10,11,05,37,6.60
2015,10,11,05,38,6.60
2015,10,11,05,39,6.60
2015,10,11,05,40,6.60
2015,10,11,05,41,6.60
2015,10,11,05,42,6.60
2015,10,11,05,43,6.50
2015,10,11,05,44,6.50
2015,10,11,05,45,6.50
2015,10,11,05,46,6.50
2015,10,11,05,47,6.50
2015,10,11,05,48,6.40
2015,10,11,05,49,6.40
2015,10,11,05,50,6.40
2015,10,11,05,51,6.40
2015,10,11,05,52,6.40
2015,10,11,05,53,6.40
2015,10,11,05,54,6.40
2015,10,11,05,55,6.40
2015,10,11,05,56,6.40
2015,10,11,05,57,6.40
2015,10,11,05,58,6.40
2015,10,11,05,59,6.40
2015,10,11,06,00,6.30
2015,10,11,06,01,6.30
2015,10,11,06,02,6.30
2015,10,11,06,03,6.30
2015,10,11,06,04,6.30
2015,10,11,06,05,6.30
2015,10,11,06,06,6.30
2015,10,11,06,07,6.30
2015,10,11,06,08,6.30
2015,10,11,06,09,6.30
2015,10,11,06,10,6.20
2015,10,11,06,11,6.20
2015,10,11,06,12,6.20
2015,10,11,06,13,6.20
2015,10,11,06,14,6.20
2015,10,11,06,15,6.20
2015,10,11,06,16,6.20
2015,10,11,06,17,6.20
2015,10,11,06,18,6.20
2015,10,11,06,19,6.20
2015,10,11,06,20,6.20
2015,10,11,06,21,6.20
2015,10,11,06,22,6.20
2015,10,11,06,23,6.20
2015,10,11,06,24,6.20
2015,10,11,06,25,6.20
2015,10,11,06,26,6.20
2015,10,11,06,27,6.20
2015,10,11,06,28,6.20
2015,10,11,06,29,6.20
2015,10,11,06,30,6.20
2015,10,11,06,31,6.20
2015,10,11,06,32,6.20
2015,10,11,06,33,6.10
2015,10,11,06,34,6.10
2015,10,11,06,35,6.10
2015,10,11,06,36,6.10
2015,10,11,06,37,6.20
2015,10,11,06,38,6.10
2015,10,11,06,39,6.10
2015,10,11,06,40,6.10
2015,10,11,06,41,6.10
2015,10,11,06,42,6.10
2015,10,11,06,43,6.10
2015,10,11,06,44,6.10
2015,10,11,06,45,6.10
2015,10,11,06,46,6.10
2015,10,11,06,47,6.10
2015,10,11,06,48,6.10
2015,10,11,06,49,6.10
2015,10,11,06,50,6.10
2015,10,11,06,51,6.10
2015,10,11,06,52,6.10
2015,10,11,06,53,6.10
2015,10,11,06,54,6.10
2015,10,11,06,55,6.00
2015,10,11,06,56,6.00
2015,10,11,06,57,6.00
2015,10,11,06,58,6.00
2015,10,11,06,59,6.00
2015,10,11,07,00,6.00
2015,10,11,07,01,6.00
2015,10,11,07,02,6.00
2015,10,11,07,03,6.00
2015,10,11,07,04,5.90
2015,10,11,07,05,5.90
2015,10,11,07,06,5.90
2015,10,11,07,07,5.90
2015,10,11,07,08,5.90
2015,10,11,07,09,5.90
2015,10,11,07,10,5.90
2015,10,11,07,11,5.90
2015,10,11,07,12,5.90
2015,10,11,07,13,5.80
2015,10,11,07,14,5.80
2015,10,11,07,15,5.80
2015,10,11,07,16,5.80
2015,10,11,07,17,5.80
2015,10,11,07,18,5.80
2015,10,11,07,19,5.80
2015,10,11,07,20,5.80
2015,10,11,07,21,5.80
2015,10,11,07,22,5.80
2015,10,11,07,23,5.80
2015,10,11,07,24,5.80
2015,10,11,07,25,5.70
2015,10,11,07,26,5.70
2015,10,11,07,27,5.70
2015,10,11,07,28,5.70
2015,10,11,07,29,5.70
2015,10,11,07,30,5.70
2015,10,11,07,31,5.70
2015,10,11,07,32,5.70
2015,10,11,07,33,5.70
2015,10,11,07,34,5.70
2015,10,11,07,35,5.70
2015,10,11,07,36,5.70
2015,10,11,07,37,5.70
2015,10,11,07,38,5.70
2015,10,11,07,39,5.70
2015,10,11,07,40,5.70
2015,10,11,07,41,5.70
2015,10,11,07,42,5.70
2015,10,11,07,43,5.70
2015,10,11,07,44,5.70
2015,10,11,07,45,5.70
2015,10,11,07,46,5.70
2015,10,11,07,47,5.70
2015,10,11,07,48,5.70
2015,10,11,07,49,5.70
2015,10,11,07,50,5.70
2015,10,11,07,51,5.70
2015,10,11,07,52,5.70
2015,10,11,07,53,5.70
2015,10,11,07,54,5.70
2015,10,11,07,55,5.70
2015,10,11,07,56,5.70
2015,10,11,07,57,5.70
2015,10,11,07,58,5.70
2015,10,11,07,59,5.70
2015,10,11,08,00,5.70
2015,10,11,08,01,5.70
2015,10,11,08,02,5.70
2015,10,11,08,03,5.70
2015,10,11,08,04,5.70
2015,10,11,08,05,5.70
2015,10,11,08,06,5.70
2015,10,11,08,07,5.70
2015,10,11,08,08,5.70
2015,10,11,08,09,5.70
2015,10,11,08,10,5.70
2015,10,11,08,11,5.70
2015,10,11,08,12,5.70
2015,10,11,08,13,5.70
2015,10,11,08,14,5.70
2015,10,11,08,15,5.70
2015,10,11,08,16,5.70
2015,10,11,08,17,5.70
2015,10,11,08,18,5.70
2015,10,11,08,19,5.70
2015,10,11,08,20,5.80
2015,10,11,08,21,5.80
2015,10,11,08,22,5.80
2015,10,11,08,23,5.80
2015,10,11,08,24,5.80
2015,10,11,08,25,5.80
2015,10,11,08,26,5.80
2015,10,11,08,27,5.90
2015,10,11,08,28,5.90
2015,10,11,08,29,5.90
2015,10,11,08,30,5.90
2015,10,11,08,31,6.00
2015,10,11,08,32,6.00
2015,10,11,08,33,6.00
2015,10,11,08,34,6.10
2015,10,11,08,35,6.10
2015,10,11,08,36,6.10
2015,10,11,08,37,6.10
2015,10,11,08,38,6.10
2015,10,11,08,39,6.20
2015,10,11,08,40,6.20
2015,10,11,08,41,6.20
2015,10,11,08,42,6.20
2015,10,11,08,43,6.30
2015,10,11,08,44,6.30
2015,10,11,08,45,6.30
2015,10,11,08,46,6.40
2015,10,11,08,47,6.40
2015,10,11,08,48,6.40
2015,10,11,08,49,6.50
2015,10,11,08,50,6.50
2015,10,11,08,51,6.50
2015,10,11,08,52,6.60
2015,10,11,08,53,6.60
2015,10,11,08,54,6.60
2015,10,11,08,55,6.70
2015,10,11,08,56,6.70
2015,10,11,08,57,6.70
2015,10,11,08,58,6.70
2015,10,11,08,59,6.80
2015,10,11,09,00,6.80
2015,10,11,09,01,6.80
2015,10,11,09,02,6.80
2015,10,11,09,03,6.90
2015,10,11,09,04,6.90
2015,10,11,09,05,6.90
2015,10,11,09,06,6.90
2015,10,11,09,07,7.00
2015,10,11,09,08,7.00
2015,10,11,09,09,7.00
2015,10,11,09,10,7.10
2015,10,11,09,11,7.10
2015,10,11,09,12,7.10
2015,10,11,09,13,7.20
2015,10,11,09,14,7.20
2015,10,11,09,15,7.20
2015,10,11,09,16,7.20
2015,10,11,09,17,7.30
2015,10,11,09,18,7.30
2015,10,11,09,19,7.30
2015,10,11,09,20,7.30
2015,10,11,09,21,7.30
2015,10,11,09,22,7.40
2015,10,11,09,23,7.40
2015,10,11,09,24,7.40
2015,10,11,09,25,7.40
2015,10,11,09,26,7.50
2015,10,11,09,27,7.50
2015,10,11,09,28,7.50
2015,10,11,09,29,7.60
2015,10,11,09,30,7.60
2015,10,11,09,31,7.60
2015,10,11,09,32,7.60
2015,10,11,09,33,7.70
2015,10,11,09,34,7.70
2015,10,11,09,35,7.70
2015,10,11,09,36,7.70
2015,10,11,09,37,7.80
2015,10,11,09,38,7.80
2015,10,11,09,39,7.90
2015,10,11,09,40,7.90
2015,10,11,09,41,7.90
2015,10,11,09,42,8.00
2015,10,11,09,43,8.00
2015,10,11,09,44,8.10
2015,10,11,09,45,8.10
2015,10,11,09,46,8.20
2015,10,11,09,47,8.20
2015,10,11,09,48,8.20
2015,10,11,09,49,8.30
2015,10,11,09,50,8.30
2015,10,11,09,51,8.40
2015,10,11,09,52,8.40
2015,10,11,09,53,8.50
2015,10,11,09,54,8.60
2015,10,11,09,55,8.60
2015,10,11,09,56,8.70
2015,10,11,09,57,8.70
2015,10,11,09,58,8.80
2015,10,11,09,59,8.80
2015,10,11,10,00,8.90
2015,10,11,10,01,8.90
2015,10,11,10,02,9.00
2015,10,11,10,03,9.00
2015,10,11,10,04,9.10
2015,10,11,10,05,9.10
2015,10,11,10,06,9.20
2015,10,11,10,07,9.20
2015,10,11,10,08,9.30
2015,10,11,10,09,9.30
2015,10,11,10,10,9.30
2015,10,11,10,11,9.30
2015,10,11,10,12,9.40
2015,10,11,10,13,9.40
2015,10,11,10,14,9.40
2015,10,11,10,15,9.50
2015,10,11,10,16,9.50
2015,10,11,10,17,9.60
2015,10,11,10,18,9.60
2015,10,11,10,19,9.70
2015,10,11,10,20,9.70
2015,10,11,10,21,9.80
2015,10,11,10,22,9.80
2015,10,11,10,23,9.90
2015,10,11,10,24,9.90
2015,10,11,10,25,10.00
2015,10,11,10,26,10.00
2015,10,11,10,27,10.10
2015,10,11,10,28,10.10
2015,10,11,10,29,10.20
2015,10,11,10,30,10.30
2015,10,11,10,31,10.40
2015,10,11,10,32,10.40
2015,10,11,10,33,10.50
2015,10,11,10,34,10.50
2015,10,11,10,35,10.60
2015,10,11,10,36,10.60
2015,10,11,10,37,10.70
2015,10,11,10,38,10.70
2015,10,11,10,39,10.70
2015,10,11,10,40,10.70
2015,10,11,10,41,10.80
2015,10,11,10,42,10.80
2015,10,11,10,43,10.80
2015,10,11,10,44,10.80
2015,10,11,10,45,10.90
2015,10,11,10,46,10.90
2015,10,11,10,47,10.90
2015,10,11,10,48,10.90
2015,10,11,10,49,11.00
2015,10,11,10,50,11.00
2015,10,11,10,51,11.00
2015,10,11,10,52,11.00
2015,10,11,10,53,11.00
2015,10,11,10,54,11.10
2015,10,11,10,55,11.10
2015,10,11,10,56,11.10
2015,10,11,10,57,11.10
2015,10,11,10,58,11.20
2015,10,11,10,59,11.20
2015,10,11,11,00,11.20
2015,10,11,11,01,11.30
2015,10,11,11,02,11.30
2015,10,11,11,03,11.30
2015,10,11,11,04,11.30
2015,10,11,11,05,11.30
2015,10,11,11,06,11.30
2015,10,11,11,07,11.30
2015,10,11,11,08,11.30
2015,10,11,11,09,11.30
2015,10,11,11,10,11.30
2015,10,11,11,11,11.30
2015,10,11,11,12,11.30
2015,10,11,11,13,11.30
2015,10,11,11,14,11.30
2015,10,11,11,15,11.30
2015,10,11,11,16,11.30
2015,10,11,11,17,11.30
2015,10,11,11,18,11.30
2015,10,11,11,19,11.30
2015,10,11,11,20,11.30
2015,10,11,11,21,11.30
2015,10,11,11,22,11.30
2015,10,11,11,23,11.40
2015,10,11,11,24,11.40
2015,10,11,11,25,11.40
2015,10,11,11,26,11.40
2015,10,11,11,27,11.40
2015,10,11,11,28,11.40
2015,10,11,11,29,11.50
2015,10,11,11,30,11.50
2015,10,11,11,31,11.50
2015,10,11,11,32,11.50
2015,10,11,11,33,11.50
2015,10,11,11,34,11.50
2015,10,11,11,35,11.50
2015,10,11,11,36,11.50
2015,10,11,11,37,11.50
2015,10,11,11,38,11.50
2015,10,11,11,39,11.50
2015,10,11,11,40,11.50
2015,10,11,11,41,11.50
2015,10,11,11,42,11.50
2015,10,11,11,43,11.50
2015,10,11,11,44,11.50
2015,10,11,11,45,11.50
2015,10,11,11,46,11.50
2015,10,11,11,47,11.50
2015,10,11,11,48,11.50
2015,10,11,11,49,11.50
2015,10,11,11,50,11.50
2015,10,11,11,51,11.50
2015,10,11,11,52,11.50
2015,10,11,11,53,11.50
2015,10,11,11,54,11.50
2015,10,11,11,55,11.50
2015,10,11,11,56,11.50
2015,10,11,11,57,11.50
2015,10,11,11,58,11.50
2015,10,11,11,59,11.50
2015,10,11,12,00,11.50
2015,10,11,12,01,11.40
2015,10,11,12,02,11.50
2015,10,11,12,03,11.40
2015,10,11,12,04,11.40
2015,10,11,12,05,11.40
2015,10,11,12,06,11.40
2015,10,11,12,07,11.40
2015,10,11,12,08,11.40
2015,10,11,12,09,11.40
2015,10,11,12,10,11.40
2015,10,11,12,11,11.40
2015,10,11,12,12,11.40
2015,10,11,12,13,11.40
2015,10,11,12,14,11.40
2015,10,11,12,15,11.40
2015,10,11,12,16,11.40
2015,10,11,12,17,11.50
2015,10,11,12,18,11.50
2015,10,11,12,19,11.50
2015,10,11,12,20,11.50
2015,10,11,12,21,11.50
2015,10,11,12,22,11.50
2015,10,11,12,23,11.50
2015,10,11,12,24,11.50
2015,10,11,12,25,11.50
2015,10,11,12,26,11.50
2015,10,11,12,27,11.50
2015,10,11,12,28,11.50
2015,10,11,12,29,11.50
2015,10,11,12,30,11.50
2015,10,11,12,31,11.50
2015,10,11,12,32,11.50
2015,10,11,12,33,11.60
2015,10,11,12,34,11.50
2015,10,11,12,35,11.50
2015,10,11,12,36,11.50
2015,10,11,12,37,11.50
2015,10,11,12,38,11.60
2015,10,11,12,39,11.60
2015,10,11,12,40,11.60
2015,10,11,12,41,11.60
2015,10,11,12,42,11.60
2015,10,11,12,43,11.60
2015,10,11,12,44,11.60
2015,10,11,12,45,11.60
2015,10,11,12,46,11.60
2015,10,11,12,47,11.60
2015,10,11,12,48,11.60
2015,10,11,12,49,11.60
2015,10,11,12,50,11.60
2015,10,11,12,51,11.60
2015,10,11,12,52,11.60
2015,10,11,12,53,11.60
2015,10,11,12,54,11.60
2015,10,11,12,55,11.70
2015,10,11,12,56,11.70
2015,10,11,12,57,11.70
2015,10,11,12,58,11.70
2015,10,11,12,59,11.70
2015,10,11,13,00,11.70
2015,10,11,13,01,11.70
2015,10,11,13,02,11.70
2015,10,11,13,03,11.80
2015,10,11,13,04,11.80
2015,10,11,13,05,11.80
2015,10,11,13,06,11.80
2015,10,11,13,07,11.80
2015,10,11,13,08,11.90
2015,10,11,13,09,11.90
2015,10,11,13,10,11.90
2015,10,11,13,11,11.90
2015,10,11,13,12,11.90
2015,10,11,13,13,11.90
2015,10,11,13,14,12.00
2015,10,11,13,15,12.00
2015,10,11,13,16,12.00
2015,10,11,13,17,12.00
2015,10,11,13,18,12.00
2015,10,11,13,19,12.10
2015,10,11,13,20,12.10
2015,10,11,13,21,12.10
2015,10,11,13,22,12.10
2015,10,11,13,23,12.10
2015,10,11,13,24,12.10
2015,10,11,13,25,12.10
2015,10,11,13,26,12.10
2015,10,11,13,27,12.20
2015,10,11,13,28,12.20
2015,10,11,13,29,12.20
2015,10,11,13,30,12.20
2015,10,11,13,31,12.20
2015,10,11,13,32,12.20
2015,10,11,13,33,12.20
2015,10,11,13,34,12.20
2015,10,11,13,35,12.20
2015,10,11,13,36,12.20
2015,10,11,13,37,12.20
2015,10,11,13,38,12.20
2015,10,11,13,39,12.20
2015,10,11,13,40,12.20
2015,10,11,13,41,12.20
2015,10,11,13,42,12.20
2015,10,11,13,43,12.20
2015,10,11,13,44,12.20
2015,10,11,13,45,12.20
2015,10,11,13,46,12.20
2015,10,11,13,47,12.20
2015,10,11,13,48,12.20
2015,10,11,13,49,12.20
2015,10,11,13,50,12.20
2015,10,11,13,51,12.20
2015,10,11,13,52,12.20
2015,10,11,13,53,12.20
2015,10,11,13,54,12.20
2015,10,11,13,55,12.20
2015,10,11,13,56,12.20
2015,10,11,13,57,12.20
2015,10,11,13,58,12.20
2015,10,11,13,59,12.20
2015,10,11,14,00,12.30
2015,10,11,14,01,12.30
2015,10,11,14,02,12.30
2015,10,11,14,03,12.30
2015,10,11,14,04,12.30
2015,10,11,14,05,12.30
2015,10,11,14,06,12.30
2015,10,11,14,07,12.30
2015,10,11,14,08,12.30
2015,10,11,14,09,12.30
2015,10,11,14,10,12.30
2015,10,11,14,11,12.30
2015,10,11,14,12,12.30
2015,10,11,14,13,12.30
2015,10,11,14,14,12.30
2015,10,11,14,15,12.30
2015,10,11,14,16,12.30
2015,10,11,14,17,12.30
2015,10,11,14,18,12.30
2015,10,11,14,19,12.30
2015,10,11,14,20,12.30
2015,10,11,14,21,12.30
2015,10,11,14,22,12.30
2015,10,11,14,23,12.30
2015,10,11,14,24,12.20
2015,10,11,14,25,12.20
2015,10,11,14,26,12.20
2015,10,11,14,27,12.20
2015,10,11,14,28,12.20
2015,10,11,14,29,12.20
2015,10,11,14,30,12.20
2015,10,11,14,31,12.20
2015,10,11,14,32,12.20
2015,10,11,14,33,12.20
2015,10,11,14,34,12.20
2015,10,11,14,35,12.20
2015,10,11,14,36,12.10
2015,10,11,14,37,12.10
2015,10,11,14,38,12.10
2015,10,11,14,39,12.10
2015,10,11,14,40,12.10
2015,10,11,14,41,12.10
2015,10,11,14,42,12.10
2015,10,11,14,43,12.10
2015,10,11,14,44,12.10
2015,10,11,14,45,12.10
2015,10,11,14,46,12.10
2015,10,11,14,47,12.10
2015,10,11,14,48,12.00
2015,10,11,14,49,12.00
2015,10,11,14,50,12.00
2015,10,11,14,51,11.90
2015,10,11,14,52,11.90
2015,10,11,14,53,11.90
2015,10,11,14,54,11.90
2015,10,11,14,55,11.90
2015,10,11,14,56,11.80
2015,10,11,14,57,11.80
2015,10,11,14,58,11.80
2015,10,11,14,59,11.80
2015,10,11,15,00,11.80
2015,10,11,15,01,11.80
2015,10,11,15,02,11.70
2015,10,11,15,03,11.70
2015,10,11,15,04,11.70
2015,10,11,15,05,11.70
2015,10,11,15,06,11.70
2015,10,11,15,07,11.70
2015,10,11,15,08,11.70
2015,10,11,15,09,11.70
2015,10,11,15,10,11.70
2015,10,11,15,11,11.70
2015,10,11,15,12,11.70
2015,10,11,15,13,11.70
2015,10,11,15,14,11.70
2015,10,11,15,15,11.70
2015,10,11,15,16,11.70
2015,10,11,15,17,11.70
2015,10,11,15,18,11.70
2015,10,11,15,19,11.70
2015,10,11,15,20,11.70
2015,10,11,15,21,11.70
2015,10,11,15,22,11.70
2015,10,11,15,23,11.70
2015,10,11,15,24,11.70
2015,10,11,15,25,11.70
2015,10,11,15,26,11.70
2015,10,11,15,27,11.70
2015,10,11,15,28,11.70
2015,10,11,15,29,11.70
2015,10,11,15,30,11.70
2015,10,11,15,31,11.70
2015,10,11,15,32,11.70
2015,10,11,15,33,11.70
2015,10,11,15,34,11.70
2015,10,11,15,35,11.70
2015,10,11,15,36,11.70
2015,10,11,15,37,11.70
2015,10,11,15,38,11.70
2015,10,11,15,39,11.70
2015,10,11,15,40,11.70
2015,10,11,15,41,11.70
2015,10,11,15,42,11.60
2015,10,11,15,43,11.60
2015,10,11,15,44,11.60
2015,10,11,15,45,11.60
2015,10,11,15,46,11.60
2015,10,11,15,47,11.60
2015,10,11,15,48,11.60
2015,10,11,15,49,11.60
2015,10,11,15,50,11.60
2015,10,11,15,51,11.60
2015,10,11,15,52,11.60
2015,10,11,15,53,11.60
2015,10,11,15,54,11.60
2015,10,11,15,55,11.60
2015,10,11,15,56,11.60
2015,10,11,15,57,11.60
2015,10,11,15,58,11.60
2015,10,11,15,59,11.60
2015,10,11,16,00,11.60
2015,10,11,16,01,11.60
2015,10,11,16,02,11.60
2015,10,11,16,03,11.60
2015,10,11,16,04,11.60
2015,10,11,16,05,11.60
2015,10,11,16,06,11.60
2015,10,11,16,07,11.70
2015,10,11,16,08,11.70
2015,10,11,16,09,11.70
2015,10,11,16,10,11.60
2015,10,11,16,11,11.60
2015,10,11,16,12,11.60
2015,10,11,16,13,11.60
2015,10,11,16,14,11.60
2015,10,11,16,15,11.70
2015,10,11,16,16,11.60
2015,10,11,16,17,11.60
2015,10,11,16,18,11.60
2015,10,11,16,19,11.60
2015,10,11,16,20,11.60
2015,10,11,16,21,11.60
2015,10,11,16,22,11.60
2015,10,11,16,23,11.60
2015,10,11,16,24,11.60
2015,10,11,16,25,11.60
2015,10,11,16,26,11.60
2015,10,11,16,27,11.60
2015,10,11,16,28,11.60
2015,10,11,16,29,11.60
2015,10,11,16,30,11.60
2015,10,11,16,31,11.60
2015,10,11,16,32,11.60
2015,10,11,16,33,11.60
2015,10,11,16,34,11.60
2015,10,11,16,35,11.70
2015,10,11,16,36,11.70
2015,10,11,16,37,11.70
2015,10,11,16,38,11.70
2015,10,11,16,39,11.70
2015,10,11,16,40,11.70
2015,10,11,16,41,11.70
2015,10,11,16,42,11.70
2015,10,11,16,43,11.70
2015,10,11,16,44,11.70
2015,10,11,16,45,11.70
2015,10,11,16,46,11.70
2015,10,11,16,47,11.70
2015,10,11,16,48,11.70
2015,10,11,16,49,11.70
2015,10,11,16,50,11.70
2015,10,11,16,51,11.70
2015,10,11,16,52,11.70
2015,10,11,16,53,11.70
2015,10,11,16,54,11.70
2015,10,11,16,55,11.70
2015,10,11,16,56,11.70
2015,10,11,16,57,11.70
2015,10,11,16,58,11.70
2015,10,11,16,59,11.60
2015,10,11,17,00,11.60
2015,10,11,17,01,11.60
2015,10,11,17,02,11.60
2015,10,11,17,03,11.60
2015,10,11,17,04,11.60
2015,10,11,17,05,11.60
2015,10,11,17,06,11.60
2015,10,11,17,07,11.60
2015,10,11,17,08,11.60
2015,10,11,17,09,11.60
2015,10,11,17,10,11.60
2015,10,11,17,11,11.60
2015,10,11,17,12,11.60
2015,10,11,17,13,11.60
2015,10,11,17,14,11.60
2015,10,11,17,15,11.60
2015,10,11,17,16,11.60
2015,10,11,17,17,11.60
2015,10,11,17,18,11.60
2015,10,11,17,19,11.60
2015,10,11,17,20,11.60
2015,10,11,17,21,11.60
2015,10,11,17,22,11.60
2015,10,11,17,23,11.60
2015,10,11,17,24,11.60
2015,10,11,17,25,11.60
2015,10,11,17,26,11.60
2015,10,11,17,27,11.60
2015,10,11,17,28,11.70
2015,10,11,17,29,11.70
2015,10,11,17,30,11.70
2015,10,11,17,31,11.70
2015,10,11,17,32,11.70
2015,10,11,17,33,11.70
2015,10,11,17,34,11.70
2015,10,11,17,35,11.70
2015,10,11,17,36,11.70
2015,10,11,17,37,11.70
2015,10,11,17,38,11.70
2015,10,11,17,39,11.70
2015,10,11,17,40,11.70
2015,10,11,17,41,11.70
2015,10,11,17,42,11.70
2015,10,11,17,43,11.70
2015,10,11,17,44,11.70
2015,10,11,17,45,11.80